Vorticity
5 -2 7 -3 0 8 5 4 5 4 3 3 4 7 8 5 7 5 5 5 6 6 6 5 5 5 7 6 6 6 6 7 6 6 6 7 7 7 6 6 6 6 7
4 -0 4 0 -0 7 4 6 6 4 4 3 4 7 8 7 7 5 5 5 6 6 6 5 4 5 7 6 6 5 6 7 7 7 7 7 7 7 7 6 7 7 7
6 13 1 5 3 9 13 8 5 4 5 3 4 7 13 6 6 6 6 5 6 7 5 4 4 5 6 6 6 6 8 8 8 8 7 7 7 8 7 7 8 7 8
9 3 3 7 3 6 12 8 7 4 4 5 6 6 9 7 7 8 6 6 6 6 6 4 3 6 6 6 6 6 8 8 7 8 7 7 8 8 8 8 9 7 8
5 5 6 10 0 13 12 8 9 8 6 5 4 5 9 7 7 9 6 6 6 5 5 4 3 6 6 6 6 7 7 7 7 7 8 7 7 9 8 8 9 8 8
-2 7 4 -7 4 9 8 10 8 5 5 6 6 9 14 9 5 8 7 6 6 6 5 3 2 5 7 7 6 7 7 6 7 7 7 9 8 8 8 9 9 9 9
16 6 7 6 1 3 2 10 12 8 8 11 9 5 8 6 6 5 8 5 6 5 5 4 2 5 7 7 6 7 7 7 6 7 7 7 9 9 8 9 9 10 10
10 12 5 4 3 3 1 6 13 9 7 1 -2 2 5 5 6 4 4 5 4 5 5 4 2 4 8 6 6 7 7 6 7 6 7 7 8 8 9 8 8 9 10
-9 -1 8 5 11 9 -1 8 10 8 4 2 3 1 7 7 5 4 4 3 4 5 4 5 2 3 8 6 6 7 7 6 7 6 6 7 7 7 8 8 8 8 9
18 31 10 3 12 5 1 7 10 10 7 5 7 5 8 4 10 6 4 6 5 5 5 5 3 2 6 7 6 7 7 6 6 6 6 6 7 7 7 7 7 8 8
34 -1 -29 7 6 -2 -3 3 7 8 9 7 6 6 6 7 9 8 8 7 6 5 5 5 4 1 5 8 7 6 6 6 6 6 6 6 6 7 7 7 7 7 7
-12 40 40 19 -17 -17 16 0 7 8 10 9 7 5 7 8 9 6 7 7 9 7 6 5 5 1 4 8 6 6 6 6 6 6 6 6 6 6 7 6 6 6 6
33 -59 25 22 17 29 -2 6 5 8 9 10 8 8 5 7 8 0 7 10 7 7 6 6 6 2 3 7 7 6 6 6 6 6 6 6 6 6 7 6 6 6 6
19 15 21 34 40 -1 1 8 1 12 7 10 9 9 7 5 6 8 6 8 8 7 8 7 7 5 2 6 8 7 7 6 6 5 6 5 6 6 6 6 6 6 6
17 20 31 -31 28 39 8 0 1 12 6 8 10 11 10 6 6 6 5 8 7 7 7 7 7 7 3 4 8 9 7 7 6 6 6 5 6 6 6 6 5 6 6
36 25 36 4 22 29 6 -5 7 4 6 6 9 10 12 7 6 6 5 6 7 5 4 6 8 8 4 3 7 8 8 7 7 6 6 5 5 5 6 6 5 6 6
34 18 27 23 -34 62 -2 5 2 2 8 6 10 9 13 10 7 5 4 4 7 5 8 7 6 8 6 2 5 7 8 8 8 7 7 6 6 6 6 6 6 6 5
23 14 21 45 50 -6 -2 16 3 3 8 9 8 8 13 10 7 6 6 7 5 7 5 6 6 5 6 3 4 5 7 7 8 8 7 6 6 6 6 6 6 6 6
19 6 24 1 -41 63 34 22 8 29 -3 5 8 9 11 11 10 7 6 6 6 4 8 7 4 7 5 4 3 5 6 7 7 7 8 7 6 6 5 6 6 6 6
21 22 13 16 24 18 28 33 13 14 4 -0 8 8 10 9 12 9 8 7 7 6 5 9 8 4 7 6 3 4 5 8 8 8 9 9 8 6 6 5 6 5 5
20 -2 12 -7 -11 -11 24 44 -27 48 4 -2 9 7 8 7 9 9 10 11 8 7 6 6 8 7 5 4 6 5 5 6 5 6 9 9 8 7 9 9 7 6 6
10 24 6 18 -6 37 -25 15 58 -16 45 -29 12 2 5 6 7 9 10 9 7 10 9 7 7 8 8 6 6 4 5 5 6 6 8 8 8 8 9 9 8 7 6
13 10 12 11 16 22 -21 28 -48 59 9 -4 14 25 -6 7 5 8 9 9 9 6 8 8 9 9 9 8 8 6 5 4 6 7 9 6 7 9 10 9 8 7 7
9 10 2 10 9 10 17 28 16 4 44 29 1 6 8 2 5 7 8 9 8 9 6 7 7 6 7 10 10 8 9 10 8 7 6 4 5 6 5 6 7 8 8
8 5 3 15 8 12 10 14 16 6 31 14 43 34 31 -2 10 6 7 8 10 9 9 7 7 7 8 6 8 8 5 4 3 1 3 4 5 4 4 6 8 9 10
27 -5 29 22 8 -11 20 -13 2 0 -2 -15 32 17 -5 10 8 4 10 11 6 11 9 8 7 7 6 8 6 7 6 5 4 5 4 4 4 4 3 5 7 7 7
Height
3098 3105 3108 3112 3114 3119 3123 3128 3131 3134 3138 3141 3145 3148 3151 3153 3155 3157 3159 3161 3162 3164 3165 3165 3166 3167 3167 3167 3167 3167 3167 3166 3165 3165 3165 3164 3163 3163 3163 3163 3163 3163 3162
3092 3098 3103 3107 3109 3115 3121 3125 3129 3132 3134 3138 3142 3145 3148 3150 3153 3155 3158 3160 3162 3164 3165 3166 3166 3167 3167 3167 3168 3168 3167 3167 3167 3166 3166 3165 3164 3164 3164 3165 3165 3164 3164
3087 3094 3097 3102 3105 3111 3116 3120 3125 3129 3131 3134 3138 3142 3146 3148 3150 3153 3156 3158 3161 3163 3165 3166 3167 3167 3168 3168 3168 3168 3168 3168 3168 3168 3167 3166 3166 3166 3166 3165 3165 3165 3165
3080 3087 3092 3097 3100 3107 3111 3115 3120 3125 3128 3130 3134 3138 3142 3146 3149 3152 3154 3157 3160 3162 3164 3165 3167 3167 3168 3168 3169 3168 3169 3169 3168 3168 3168 3168 3167 3167 3167 3166 3166 3166 3166
3071 3077 3084 3089 3095 3101 3106 3110 3115 3121 3124 3127 3130 3134 3139 3143 3146 3150 3152 3155 3158 3160 3162 3164 3166 3167 3168 3168 3169 3169 3169 3169 3169 3169 3169 3169 3168 3168 3168 3167 3167 3167 3167
3064 3069 3077 3081 3089 3094 3100 3103 3111 3116 3121 3124 3126 3130 3135 3140 3144 3147 3150 3153 3156 3159 3161 3162 3165 3166 3168 3169 3169 3170 3170 3170 3170 3170 3169 3171 3170 3169 3169 3168 3169 3168 3169
3050 3061 3069 3077 3080 3087 3095 3100 3106 3110 3114 3118 3122 3126 3130 3136 3140 3144 3147 3150 3153 3156 3159 3161 3163 3165 3167 3168 3169 3169 3170 3171 3171 3171 3171 3171 3171 3171 3170 3169 3170 3171 3170
3038 3051 3060 3068 3072 3081 3086 3092 3099 3104 3108 3114 3116 3121 3125 3131 3135 3139 3143 3147 3150 3153 3156 3160 3162 3164 3165 3167 3168 3169 3170 3170 3171 3171 3172 3171 3172 3173 3173 3171 3171 3171 3172
3028 3042 3052 3060 3065 3073 3078 3087 3093 3098 3104 3108 3112 3117 3120 3125 3132 3136 3140 3144 3148 3151 3154 3156 3160 3162 3164 3165 3167 3168 3169 3170 3171 3171 3172 3172 3173 3173 3174 3174 3173 3172 3173
3020 3029 3042 3052 3056 3065 3072 3079 3087 3093 3097 3103 3108 3112 3118 3125 3130 3134 3138 3141 3145 3148 3151 3154 3156 3159 3162 3164 3166 3167 3169 3169 3170 3171 3172 3173 3173 3173 3174 3175 3175 3175 3175
3010 3020 3030 3043 3047 3055 3062 3071 3079 3084 3090 3098 3103 3108 3113 3118 3125 3131 3137 3140 3141 3145 3148 3152 3154 3156 3159 3162 3164 3166 3167 3169 3170 3171 3172 3173 3174 3174 3175 3176 3176 3177 3177
3001 3009 3022 3032 3038 3042 3055 3063 3072 3078 3083 3090 3097 3102 3109 3116 3122 3127 3132 3137 3142 3144 3147 3149 3152 3154 3156 3158 3161 3163 3165 3167 3169 3170 3171 3172 3174 3175 3176 3176 3177 3178 3179
2994 3002 3009 3018 3025 3032 3047 3056 3065 3071 3076 3082 3090 3098 3104 3111 3118 3123 3127 3132 3136 3139 3141 3146 3149 3152 3155 3157 3158 3160 3163 3165 3167 3168 3170 3172 3173 3174 3175 3176 3177 3178 3178
2987 2995 3001 3011 3017 3028 3036 3048 3057 3064 3071 3075 3082 3090 3098 3104 3111 3118 3122 3126 3130 3133 3138 3144 3147 3149 3152 3155 3157 3158 3160 3162 3164 3166 3168 3170 3172 3174 3175 3176 3177 3177 3178
2982 2990 2995 3003 3012 3019 3024 3042 3050 3056 3063 3069 3076 3082 3090 3096 3104 3110 3115 3120 3124 3128 3133 3139 3143 3147 3150 3152 3154 3156 3158 3160 3161 3163 3166 3168 3170 3172 3174 3175 3176 3177 3178
2977 2981 2988 2995 3003 3010 3016 3032 3044 3051 3056 3062 3068 3074 3081 3088 3096 3102 3108 3113 3118 3122 3128 3135 3140 3144 3146 3148 3150 3152 3155 3157 3159 3161 3163 3165 3167 3169 3171 3173 3174 3175 3176
2967 2976 2982 2990 2995 3002 3010 3019 3034 3044 3049 3055 3061 3067 3074 3080 3087 3094 3101 3106 3111 3117 3123 3127 3132 3137 3139 3143 3146 3149 3151 3153 3155 3158 3160 3162 3164 3166 3168 3170 3171 3173 3174
2964 2973 2977 2980 2987 2994 3003 3010 3024 3033 3041 3047 3054 3060 3067 3072 3078 3086 3093 3099 3105 3111 3117 3122 3125 3129 3132 3138 3142 3144 3146 3149 3152 3154 3156 3158 3161 3163 3164 3166 3167 3169 3171
2961 2967 2974 2976 2981 2988 2995 3004 3018 3026 3034 3041 3048 3054 3061 3066 3072 3077 3085 3092 3098 3104 3109 3115 3118 3122 3126 3131 3135 3138 3141 3144 3146 3149 3151 3154 3156 3158 3160 3161 3164 3166 3167
2956 2960 2966 2972 2979 2987 2992 2998 3006 3014 3024 3035 3041 3048 3054 3058 3065 3072 3078 3086 3091 3096 3102 3106 3111 3115 3119 3125 3129 3132 3134 3139 3142 3144 3147 3150 3152 3154 3154 3157 3159 3162 3163
2949 2955 2961 2965 2973 2981 2985 2989 2995 3007 3017 3026 3034 3040 3046 3051 3058 3065 3072 3079 3083 3088 3092 3098 3103 3107 3111 3116 3120 3125 3130 3134 3136 3138 3141 3145 3148 3147 3150 3152 3155 3157 3158
2941 2947 2954 2960 2967 2970 2976 2981 2988 2998 3005 3016 3023 3032 3037 3045 3048 3056 3063 3069 3075 3081 3085 3090 3095 3100 3105 3110 3115 3120 3122 3125 3128 3133 3137 3139 3140 3141 3144 3147 3149 3149 3151
2937 2944 2946 2950 2960 2964 2967 2974 2982 2991 2995 3002 3011 3021 3029 3035 3041 3047 3054 3059 3065 3070 3075 3081 3086 3092 3098 3105 3109 3111 3117 3120 3124 3127 3129 3131 3132 3135 3138 3139 3141 3143 3145
2932 2935 2940 2948 2955 2955 2961 2968 2975 2980 2988 2993 2999 3008 3017 3026 3031 3038 3044 3048 3054 3059 3064 3070 3075 3083 3089 3096 3100 3106 3111 3113 3114 3116 3118 3121 3124 3128 3129 3131 3134 3136 3138
2924 2931 2935 2940 2946 2949 2956 2960 2968 2971 2976 2981 2988 2995 3003 3013 3023 3029 3034 3039 3043 3049 3055 3060 3065 3072 3078 3084 3089 3092 3094 3098 3101 3106 3109 3113 3118 3121 3121 3124 3127 3130 3131
2916 2920 2926 2931 2934 2938 2945 2952 2960 2963 2967 2973 2982 2987 2992 2999 3009 3017 3023 3027 3032 3039 3044 3050 3054 3061 3067 3072 3076 3079 3083 3086 3091 3096 3100 3102 3109 3112 3113 3118 3120 3122 3123